AB7AZ Weather Reports


Display with metric or nautical units.
time (UTC)temp
F
wind
direction
speed
MPH
gust
MPH
rain 1hr
in
rain 24hr
in
rain mn
in
humidity
%
barometer
mb
20260503211608 89 217 5.0 15.0 0.00 0.00 0.00 19 1006.4
20260503210627 89 197 6.0 15.0 0.00 0.00 0.00 19 1006.7
20260503205556 90 212 6.0 17.0 0.00 0.00 0.00 19 1006.9
20260503204555 89 226 6.0 17.0 0.00 0.00 0.00 20 1007.0
20260503203612 89 206 6.0 15.0 0.00 0.00 0.00 18 1007.0
20260503202556 89 229 6.0 15.0 0.00 0.00 0.00 18 1007.1
20260503201605 89 152 6.0 14.0 0.00 0.00 0.00 17 1007.2
20260503200611 89 240 4.0 14.0 0.00 0.00 0.00 18 1007.4
20260503194439 89 219 5.0 13.0 0.00 0.00 0.00 18 1007.7
20260503193411 87 211 6.0 14.0 0.00 0.00 0.00 21 1007.9
20260503192408 88 219 6.0 14.0 0.00 0.00 0.00 20 1008.2
20260503190234 87 226 5.0 15.0 0.00 0.00 0.00 21 1008.4
20260503185203 86 166 4.0 11.0 0.00 0.00 0.00 22 1008.6
20260503184211 86 219 4.0 5.0 0.00 0.00 0.00 22 1008.8
20260503183327 86 142 5.0 18.0 0.00 0.00 0.00 21 1008.9
20260503182316 86 49 5.0 17.0 0.00 0.00 0.00 21 1009.0
20260503181334 86 229 3.0 16.0 0.00 0.00 0.00 21 1009.1
20260503180334 85 160 6.0 15.0 0.00 0.00 0.00 23 1009.4
20260503174156 83 176 5.0 12.0 0.00 0.00 0.00 25 1009.6
20260503173139 82 58 6.0 13.0 0.00 0.00 0.00 26 1009.6
20260503172135 82 69 3.0 13.0 0.00 0.00 0.00 26 1009.8
20260503171151 81 78 5.0 14.0 0.00 0.00 0.00 27 1009.7
20260503170215 81 56 5.0 16.0 0.00 0.00 0.00 27 1009.8
20260503131343 75 343 6.0 12.0 0.00 0.00 0.00 28 1009.3
20260503080449 73 334 5.0 9.0 0.00 0.00 0.00 23 1009.5
20260503071156 74 350 6.0 9.0 0.00 0.00 0.00 22 1009.4
20260503054926 75 333 5.0 9.0 0.00 0.00 0.00 21 1009.3
20260503053906 76 342 5.0 8.0 0.00 0.00 0.00 21 1009.1
20260503052834 76 334 4.0 9.0 0.00 0.00 0.00 21 1009.2
20260503051847 75 329 5.0 9.0 0.00 0.00 0.00 21 1009.3
20260503050852 75 321 4.0 7.0 0.00 0.00 0.00 22 1009.3
20260503045832 76 334 3.0 6.0 0.00 0.00 0.00 21 1009.2
20260503044842 77 328 3.0 7.0 0.00 0.00 0.00 21 1009.1
20260503043905 77 326 4.0 8.0 0.00 0.00 0.00 21 1009.0
20260503042917 76 328 4.0 8.0 0.00 0.00 0.00 21 1008.9
20260503041915 73 6 0.0 6.0 0.00 0.00 0.00 23 1008.9
20260503040918 72 58 0.0 0.0 0.00 0.00 0.00 23 1008.8
20260503035859 73 58 0.0 0.0 0.00 0.00 0.00 23 1008.7
20260503034911 74 58 0.0 0.0 0.00 0.00 0.00 22 1008.5
20260503033916 74 196 0.0 0.0 0.00 0.00 0.00 22 1008.5
20260503032909 75 197 0.0 0.0 0.00 0.00 0.00 22 1008.5
20260503031926 75 197 0.0 0.0 0.00 0.00 0.00 21 1008.4
20260503030942 76 197 0.0 0.0 0.00 0.00 0.00 21 1008.3
20260503025921 76 197 0.0 0.0 0.00 0.00 0.00 21 1008.3
20260503024846 78 196 0.0 0.0 0.00 0.00 0.00 20 1008.1
20260503023839 80 197 0.0 0.0 0.00 0.00 0.00 19 1008.0
20260503022821 81 197 0.0 0.0 0.00 0.00 0.00 18 1007.9
20260503021830 82 207 1.0 0.0 0.00 0.00 0.00 18 1007.9
20260503020822 82 195 1.0 5.0 0.00 0.00 0.00 18 1008.0
20260503015843 83 179 3.0 6.0 0.00 0.00 0.00 18 1007.8
20260503014901 83 233 3.0 8.0 0.00 0.00 0.00 18 1007.8
20260503013908 83 200 3.0 8.0 0.00 0.00 0.00 18 1007.8
20260503012908 84 179 2.0 6.0 0.00 0.00 0.00 18 1007.8
20260503011837 85 166 1.0 7.0 0.00 0.00 0.00 17 1007.8
20260503005710 85 231 5.0 12.0 0.00 0.00 0.00 17 1007.9
20260503004719 86 223 4.0 12.0 0.00 0.00 0.00 15 1007.9
20260503003652 86 224 2.0 11.0 0.00 0.00 0.00 16 1007.9
20260503001511 86 160 4.0 10.0 0.00 0.00 0.00 15 1007.8
20260503000521 87 255 3.0 12.0 0.00 0.00 0.00 15 1007.9
20260502235503 86 241 6.0 12.0 0.00 0.00 0.00 15 1007.8
20260502234439 88 241 4.0 11.0 0.00 0.00 0.00 14 1007.9
20260502232320 88 238 4.0 15.0 0.00 0.00 0.00 14 1007.9
20260502231254 87 117 4.0 15.0 0.00 0.00 0.00 14 1007.9
20260502230316 87 104 3.0 12.0 0.00 0.00 0.00 15 1007.9
20260502225336 88 134 2.0 17.0 0.00 0.00 0.00 15 1008.1
20260502224346 87 221 6.0 17.0 0.00 0.00 0.00 16 1008.1
20260502222235 87 87 3.0 13.0 0.00 0.00 0.00 16 1008.4
20260502220051 88 220 5.0 13.0 0.00 0.00 0.00 16 1008.8
20260502215107 88 151 4.0 13.0 0.00 0.00 0.00 16 1009.0
20260502214117 87 142 6.0 15.0 0.00 0.00 0.00 16 1009.1
20260502213107 88 229 7.0 15.0 0.00 0.00 0.00 15 1009.2